Location: Newark
(50.4348°N, 30.5552°E)
Time: 14:06:10
(UTC+00:00)

Altair - Pass Details

Date: 20 January 2020
Orbit: 1502 x 1682 km, 47.2° (Epoch: 25 February)

Event Time Altitude Azimuth Distance (km) Brightness Sun altitude
Rises 07:53:29 0° 222° (SW) 4,898 10.3 13.3°
Reaches altitude 10° 07:56:46 10° 217° (SW) 3,925 10.0 13.6°
Maximum altitude 08:06:14 47° 148° (SSE) 2,119 9.4 14.4°
Drops below altitude 10° 08:15:41 10° 79° (E) 3,928 9.9 15.1°
Sets 08:18:58 0° 74° (ENE) 4,903 10.3 15.3°
